Zurück zum Katalog

TIANHUI 5C

AktivWissenschaftSSO
NORAD 60211·PAYLOAD·🇨🇳 China

Gestartet Jul 4, 2024 von Taiyuan Satellite Launch Center

Loading…

Nächste Überflüge (nächste 24 Stunden)

TLE

AktuellSource: Space-Track

Epoche: Sep 14, 2026, 08:37 UTC

1 60211U 24126A   26257.35964617  .00000262  00000-0  34783-4 0  9997
2 60211  97.8215 263.6560 0001557  89.4530 270.6865 14.87579907119146

Verfolge TIANHUI 5C in Echtzeit mit AllMySat

Download on the App Store